Station PTAW1 - 9444090 - Port Angeles, WA Image indicating link to RSS feed of recent meteorological observations for station PTAW1


Conditions at PTAW1 as of
(3:36 pm PDT)
2236 GMT on 07/18/2024:
     

Click on the graph icon in the table below to see a time series plot of the last five days of that observation.

5-day plot - Atmospheric Pressure Atmospheric Pressure (PRES):30.09 in
5-day plot - Air Temperature Air Temperature (ATMP): 59.4 °F
5-day plot - Water Temperature Water Temperature (WTMP): 56.3 °F
5-day plot - Wind Speed at 10 Meters Wind Speed at 10 meters (WSPD10M): 17.5 kts
5-day plot - Wind Speed at 20 Meters Wind Speed at 20 meters (WSPD20M): 19.4 kts
NOS Water Level Observation Network Water Level
Previous observations
TIME
(PDT)
5-day plot - Wind Direction
WDIR
 
5-day plot - Wind Speed
WSPD
kts
5-day plot - Wind Gust
GST
kts
5-day plot - Wave Height
WVHT
ft
5-day plot - Dominant Wave Period
DPD
sec
5-day plot - Average Wave Period
APD
sec
5-day plot - Mean Wave Direction
MWD
 
5-day plot - Atmospheric Pressure
PRES
in
5-day plot - Pressure Tendency
PTDY
in
5-day plot - Air Temperature
ATMP
°F
5-day plot - Water Temperature
WTMP
°F
5-day plot - Dew Point
DEWP
°F
5-day plot - Salinity
SAL
psu
5-day plot - Visibility
VIS
nmi
5-day plot - Tide (above MLLW)
TIDE
ft
2024-07-18 03:30 pm-------30.09- 59.0 56.3----
2024-07-18 03:24 pm NW 18.1 21.0----30.09- 58.5 56.3----
2024-07-18 03:18 pm NW 15.9 20.0----30.09- 58.3 56.1----
2024-07-18 03:12 pm NW 15.0 22.0----30.09- 58.3 56.1----
2024-07-18 03:06 pm NW 15.0 20.0----30.09- 58.5 56.1----
2024-07-18 03:00 pm NW 18.1 21.0----30.10-0.02 58.5 55.9----
2024-07-18 02:54 pm NW 17.1 21.0----30.10- 58.3 55.9----
2024-07-18 02:48 pm NW 18.1 22.0----30.10- 57.9 55.6----
2024-07-18 02:42 pm NW 17.1 21.0----30.10- 57.9 55.4----
2024-07-18 02:36 pm-------30.10- 57.9 55.2----
2024-07-18 02:30 pm-------30.10- 57.9 55.2----
2024-07-18 02:24 pm NW 15.9 22.0----30.11- 57.7 55.0----
2024-07-18 02:18 pm NW 18.1 22.0----30.10- 57.9 55.0----
2024-07-18 02:12 pm NW 17.1 22.0----30.11- 58.1 55.0----
2024-07-18 02:06 pm NW 15.9 21.0----30.11- 58.1 55.0----
2024-07-18 02:00 pm NW 15.9 20.0----30.11-0.01 58.3 55.0----
2024-07-18 01:54 pm NW 15.0 21.0----30.11- 58.5 55.0----
2024-07-18 01:48 pm NW 18.1 22.9----30.11- 58.5 55.2----
2024-07-18 01:42 pm NW 15.0 21.0----30.11- 58.3 55.2----
2024-07-18 01:36 pm-------30.11- 58.3 55.2----
2024-07-18 01:30 pm-------30.11- 58.1 55.2----
2024-07-18 01:24 pm NW 15.9 22.0----30.11- 58.3 55.2----
2024-07-18 01:18 pm NW 15.0 19.0----30.12- 58.1 55.2----
2024-07-18 01:12 pm NW 14.0 20.0----30.12- 57.9 55.4----
2024-07-18 01:06 pm NW 15.0 19.0----30.12- 57.7 55.4----
2024-07-18 01:00 pm NW 14.0 17.1----30.12+0.00 57.9 55.4----
2024-07-18 12:54 pm NW 15.0 18.1----30.12- 57.9 55.6----
2024-07-18 12:48 pm NW 14.0 17.1----30.12- 57.9 55.6----
2024-07-18 12:42 pm NW 14.0 18.1----30.12- 58.1 55.6----
2024-07-18 12:36 pm-------30.12- 58.3 55.6----
2024-07-18 12:30 pm-------30.12- 58.1 55.8----
2024-07-18 12:24 pm NW 13.0 15.9----30.12- 58.1 55.8----
2024-07-18 12:18 pm NW 12.0 15.0----30.12- 58.3 55.8----
2024-07-18 12:12 pm NW 9.9 15.0----30.12- 58.3 55.8----
2024-07-18 12:06 pm NW 11.1 13.0----30.12- 58.1 55.8----
2024-07-18 12:00 pm NW 9.9 13.0----30.12+0.01 58.3 55.8----
2024-07-18 11:54 am NW 9.9 13.0----30.12- 57.9 55.6----
2024-07-18 11:48 amNNW 8.0 12.0----30.12- 57.9 55.4----
2024-07-18 11:42 amNNW 7.0 9.9----30.12- 57.9 55.2----
2024-07-18 11:36 am-------30.12- 57.9 55.2----
2024-07-18 11:30 am-------30.12- 57.9 55.0----
2024-07-18 11:24 am N 5.1 8.0----30.12- 57.9 55.0----
2024-07-18 11:18 amNNW 6.0 8.0----30.12- 57.9 55.0----
2024-07-18 11:12 am N 6.0 8.0----30.12- 57.7 55.0----
2024-07-18 11:06 am N 5.1 7.0----30.12- 57.9 55.0----
2024-07-18 11:00 am N 5.1 6.0----30.12+0.01 57.9 55.0----
2024-07-18 10:54 am N 5.1 5.1----30.12- 57.9 55.0----
2024-07-18 10:48 am N 4.1 5.1----30.11- 57.9 55.0----
2024-07-18 10:42 am N 5.1 6.0----30.12- 57.9 55.0----
2024-07-18 10:36 am-------30.12- 58.1 55.0----
2024-07-18 10:30 am-------30.11- 57.9 55.0----
2024-07-18 10:24 am N 4.1 5.1----30.12- 57.9 55.0----
2024-07-18 10:18 am N 5.1 5.1----30.11- 57.9 55.0----
2024-07-18 10:12 am N 5.1 6.0----30.11- 57.7 55.0----
2024-07-18 10:06 am N 5.1 7.0----30.12- 57.7 55.0----
2024-07-18 10:00 am N 6.0 7.0----30.12+0.01 57.7 55.0----
2024-07-18 09:54 am N 6.0 7.0----30.12- 57.9 55.0----
2024-07-18 09:48 am N 6.0 6.0----30.12- 58.3 55.0----
2024-07-18 09:42 am N 5.1 6.0----30.12- 58.6 55.0----
2024-07-18 09:36 am-------30.12- 59.7 55.0----
2024-07-18 09:30 am-------30.11- 60.8 55.0----
2024-07-18 09:24 amNNE 5.1 6.0----30.11- 60.6 55.0----
2024-07-18 09:18 am NE 5.1 6.0----30.11- 61.3 55.0----
2024-07-18 09:12 amENE 4.1 6.0----30.11- 62.2 55.0----
2024-07-18 09:06 am SE 1.9 4.1----30.11- 64.2 55.0----
2024-07-18 09:00 am S 4.1 6.0----30.11+0.01 63.5 55.0----
2024-07-18 08:54 amSSE 2.9 6.0----30.11- 62.6 55.0----
2024-07-18 08:48 am S 4.1 7.0----30.11- 62.2 55.0----
2024-07-18 08:42 am S 2.9 8.0----30.11- 61.7 55.0----
2024-07-18 08:36 am-------30.11- 61.0 55.0----
2024-07-18 08:30 am-------30.11- 60.3 55.0----
2024-07-18 08:24 amWNW 1.9 5.1----30.11- 59.4 55.0----
2024-07-18 08:18 amWNW 2.9 5.1----30.11- 59.0 55.0----
2024-07-18 08:12 amWNW 2.9 5.1----30.11- 59.4 55.0----
2024-07-18 08:06 amWNW 4.1 5.1----30.11- 59.5 55.0----
2024-07-18 08:00 amWNW 4.1 5.1----30.11+0.02 59.5 55.0----
2024-07-18 07:54 am W 1.0 5.1----30.11- 59.2 54.9----
2024-07-18 07:48 amWNW 6.0 8.0----30.11- 59.0 54.9----
2024-07-18 07:42 amWNW 6.0 7.0----30.11- 58.6 55.0----
2024-07-18 07:36 am-------30.11- 58.6 55.0----
2024-07-18 07:30 am-------30.11- 58.6 55.0----
2024-07-18 07:24 amWNW 7.0 8.0----30.11- 58.5 55.2----
2024-07-18 07:18 am NW 6.0 8.0----30.11- 58.3 55.2----
2024-07-18 07:12 am NW 6.0 8.0----30.11- 58.6 55.2----
2024-07-18 07:06 amWNW 7.0 8.0----30.11- 58.6 55.2----
2024-07-18 07:00 amWNW 5.1 7.0----30.11+0.03 58.5 55.2----
2024-07-18 06:54 amWNW 6.0 8.0----30.11- 58.3 55.2----
2024-07-18 06:48 am NW 5.1 7.0----30.10- 58.5 55.4----
2024-07-18 06:42 amWNW 5.1 8.0----30.10- 58.6 55.4----
2024-07-18 06:36 am-------30.10- 58.6 55.2----
2024-07-18 06:30 am-------30.10- 58.5 55.2----
2024-07-18 06:24 am NW 6.0 9.9----30.10- 58.5 55.2----
2024-07-18 06:18 amWNW 8.0 9.9----30.09- 58.5 55.2----
2024-07-18 06:12 amWNW 7.0 8.0----30.09- 58.6 55.2----
2024-07-18 06:06 amWNW 6.0 8.0----30.09- 58.6 55.2----
2024-07-18 06:00 amWNW 6.0 8.0----30.09+0.03 59.0 55.0----
2024-07-18 05:54 amWNW 5.1 6.0----30.09- 58.8 55.0----
2024-07-18 05:48 amWNW 6.0 8.0----30.09- 58.8 55.0----
2024-07-18 05:42 amWNW 5.1 7.0----30.09- 59.0 55.0----
2024-07-18 05:36 am-------30.09- 59.0 55.0----
2024-07-18 05:30 am-------30.09- 59.0 55.0----
2024-07-18 05:24 amWNW 5.1 7.0----30.09- 59.0 55.0----
2024-07-18 05:18 amWNW 5.1 7.0----30.09- 59.0 54.9----
2024-07-18 05:12 amWNW 6.0 8.0----30.09- 59.0 54.9----
2024-07-18 05:06 amWNW 6.0 11.1----30.09- 59.2 54.9----
2024-07-18 05:00 amWNW 5.1 7.0----30.09+0.02 59.0 54.9----
2024-07-18 04:54 amWNW 6.0 8.9----30.09- 59.2 54.9----
2024-07-18 04:48 amWNW 8.9 12.0----30.09- 59.2 54.9----
2024-07-18 04:42 am W 7.0 11.1----30.09- 59.2 54.9----
2024-07-18 04:36 am-------30.09- 59.2 54.9----
2024-07-18 04:30 am-------30.09- 59.2 54.9----
2024-07-18 04:24 am W 6.0 11.1----30.09- 59.2 54.9----
2024-07-18 04:18 am W 8.0 12.0----30.09- 59.0 54.7----
2024-07-18 04:12 am W 7.0 8.9----30.09- 59.0 54.5----
2024-07-18 04:06 am W 6.0 9.9----30.08- 59.0 54.3----
2024-07-18 04:00 amWNW 6.0 8.0----30.08+0.03 58.8 54.1----
2024-07-18 03:54 am W 5.1 11.1----30.08- 59.0 54.0----
2024-07-18 03:48 amWNW 8.9 11.1----30.08- 58.8 54.0----
2024-07-18 03:42 am W 7.0 9.9----30.07- 58.8 54.0----
2024-07-18 03:36 am-------30.07- 58.6 54.0----
2024-07-18 03:30 am-------30.07- 58.6 54.0----
2024-07-18 03:24 amWNW 7.0 9.9----30.07- 58.6 54.0----
2024-07-18 03:18 am W 5.1 8.9----30.07- 58.6 54.1----
2024-07-18 03:12 am W 7.0 12.0----30.07- 58.6 54.1----
2024-07-18 03:06 am W 8.0 12.0----30.07- 58.6 54.1----
2024-07-18 03:00 am W 5.1 8.0----30.06+0.02 58.5 54.1----
2024-07-18 02:54 am W 5.1 11.1----30.06- 58.5 54.1----
2024-07-18 02:48 am W 6.0 12.0----30.07- 58.5 54.1----
2024-07-18 02:42 am W 6.0 9.9----30.07- 58.5 54.1----
2024-07-18 02:36 am-------30.06- 58.5 54.1----
2024-07-18 02:30 am-------30.07- 58.5 54.1----
2024-07-18 02:24 am W 5.1 11.1----30.06- 58.5 54.1----
2024-07-18 02:18 amWNW 7.0 9.9----30.06- 58.5 54.3----
2024-07-18 02:12 amWNW 7.0 9.9----30.07- 58.5 54.5----
2024-07-18 02:06 amWNW 8.0 13.0----30.07- 58.5 54.5----
2024-07-18 02:00 am W 8.0 13.0----30.06+0.03 58.5 54.5----
2024-07-18 01:54 amWNW 7.0 14.0----30.06- 58.5 54.5----
2024-07-18 01:48 amWNW 6.0 12.0----30.06- 58.5 54.3----
2024-07-18 01:42 amWNW 7.0 9.9----30.06- 58.5 54.3----
2024-07-18 01:36 am-------30.06- 58.5 54.3----
2024-07-18 01:30 am-------30.06- 58.5 54.3----
2024-07-18 01:24 amWNW 7.0 11.1----30.06- 58.5 54.3----
2024-07-18 01:18 am W 6.0 14.0----30.06- 58.5 54.3----
2024-07-18 01:12 amWNW 8.9 13.0----30.06- 58.5 54.3----
2024-07-18 01:06 amWNW 11.1 14.0----30.05- 58.5 54.3----
2024-07-18 01:00 amWNW 8.9 12.0----30.05+0.02 58.5 54.5----
2024-07-18 12:54 amWNW 11.1 15.9----30.05- 58.5 54.5----
2024-07-18 12:48 amWNW 9.9 15.0----30.05- 58.5 54.5----
2024-07-18 12:42 am W 9.9 15.0----30.05- 58.5 54.7----
2024-07-18 12:36 am-------30.05- 58.5 54.7----
2024-07-18 12:30 am-------30.05- 58.5 54.7----
2024-07-18 12:24 amWNW 9.9 18.1----30.04- 58.5 54.9----
2024-07-18 12:18 am W 12.0 17.1----30.04- 58.6 54.9----
2024-07-18 12:12 amWNW 12.0 15.9----30.04- 58.6 54.9----
2024-07-18 12:06 am W 8.9 17.1----30.04- 58.6 55.0----
2024-07-18 12:00 amWNW 9.9 15.9----30.04+0.02 58.6 55.0----
2024-07-17 11:54 pmWNW 8.9 14.0----30.04- 58.6 55.0----
2024-07-17 11:48 pmWNW 8.9 20.0----30.04- 58.6 55.0----
2024-07-17 11:42 pmWNW 11.1 14.0----30.04- 58.6 55.2----
2024-07-17 11:36 pm-------30.04- 58.8 55.2----
2024-07-17 11:30 pm-------30.04- 58.8 55.2----
2024-07-17 11:24 pm W 8.0 12.0----30.04- 58.8 55.4----
2024-07-17 11:18 pm W 8.0 17.1----30.04- 58.8 55.2----
2024-07-17 11:12 pmWNW 11.1 17.1----30.03- 58.8 55.4----
2024-07-17 11:06 pmWNW 8.9 15.9----30.03- 58.8 55.2----
2024-07-17 11:00 pmWNW 8.9 15.0----30.03+0.02 59.0 55.2----
2024-07-17 10:54 pmWNW 8.9 13.0----30.03- 59.0 55.2----
2024-07-17 10:48 pm W 6.0 9.9----30.03- 59.0 55.0----
2024-07-17 10:42 pmWNW 7.0 8.9----30.04- 59.2 54.3----
2024-07-17 10:36 pm-------30.04- 59.2 53.2----
2024-07-17 10:30 pm-------30.03- 59.2 52.3----
2024-07-17 10:24 pm W 5.1 9.9----30.03- 59.2 52.5----
2024-07-17 10:18 pm W 6.0 12.0----30.03- 59.2 52.5----
2024-07-17 10:12 pmWNW 9.9 13.0----30.03- 59.2 52.5----
2024-07-17 10:06 pmWNW 8.9 12.0----30.03- 59.2 52.5----
2024-07-17 10:00 pmWNW 7.0 12.0----30.03+0.03 59.2 52.7----
2024-07-17 09:54 pmWNW 8.9 14.0----30.03- 59.2 52.9----
2024-07-17 09:48 pmWNW 8.9 12.0----30.03- 59.2 52.9----
2024-07-17 09:42 pmWNW 11.1 14.0----30.02- 59.4 52.9----
2024-07-17 09:36 pm-------30.03- 59.4 52.9----
2024-07-17 09:30 pm-------30.03- 59.5 52.9----
2024-07-17 09:24 pmWNW 8.9 14.0----30.03- 59.5 52.7----
2024-07-17 09:18 pmWNW 11.1 15.0----30.03- 59.5 52.7----
2024-07-17 09:12 pmWNW 11.1 15.0----30.02- 59.5 52.7----
2024-07-17 09:06 pmWNW 11.1 15.0----30.02- 59.7 52.5----
2024-07-17 09:00 pmWNW 12.0 15.9----30.02+0.03 59.9 52.3----
2024-07-17 08:54 pmWNW 9.9 15.0----30.02- 59.7 52.0----
2024-07-17 08:48 pm NW 13.0 17.1----30.02- 59.4 52.0----
2024-07-17 08:42 pm NW 12.0 15.0----30.02- 59.5 52.0----
2024-07-17 08:36 pm-------30.02- 59.5 52.0----
2024-07-17 08:30 pm-------30.01- 59.9 52.0----
2024-07-17 08:24 pm NW 13.0 18.1----30.01- 60.3 52.0----
2024-07-17 08:18 pm NW 12.0 15.0----30.01- 60.6 52.0----
2024-07-17 08:12 pm NW 11.1 14.0----30.01- 61.2 52.0----
2024-07-17 08:06 pm NW 9.9 13.0----30.01- 60.8 52.0----
2024-07-17 08:00 pm NW 11.1 20.0----30.01+0.02 60.4 52.0----
2024-07-17 07:54 pm NW 14.0 20.0----30.01- 61.2 52.0----
2024-07-17 07:48 pm NW 14.0 18.1----30.01- 61.0 52.0----
2024-07-17 07:42 pm NW 12.0 15.0----30.01- 61.5 52.2----
2024-07-17 07:36 pm-------30.01- 61.9 52.3----
2024-07-17 07:30 pm-------30.01- 62.2 52.3----
2024-07-17 07:24 pm NW 12.0 14.0----30.01- 61.7 52.3----
2024-07-17 07:18 pm NW 9.9 14.0----30.01- 62.4 52.5----
2024-07-17 07:12 pm NW 9.9 14.0----30.01- 62.8 52.7----
2024-07-17 07:06 pm NW 13.0 15.0----30.01- 61.2 52.7----
2024-07-17 07:00 pm NW 11.1 15.9----30.01+0.01 61.2 52.9----
2024-07-17 06:54 pm NW 14.0 17.1----30.01- 59.9 52.9----
2024-07-17 06:48 pm NW 12.0 17.1----30.00- 59.9 52.9----
2024-07-17 06:42 pm NW 13.0 15.9----30.00- 61.2 52.9----
2024-07-17 06:36 pm-------30.00- 60.3 52.7----
2024-07-17 06:30 pm-------30.00- 60.4 54.9----
2024-07-17 06:24 pm NW 15.0 17.1----30.00- 61.3 54.9----
2024-07-17 06:18 pm NW 15.9 18.1----30.00- 61.2 55.0----
2024-07-17 06:12 pm NW 14.0 17.1----30.00- 62.6 55.2----
2024-07-17 06:06 pm NW 13.0 18.1----30.00- 63.5 55.2----
2024-07-17 06:00 pm NW 14.0 18.1----29.99-0.01 63.1 55.2----
2024-07-17 05:54 pm NW 15.9 18.1----29.99- 63.1 55.4----
2024-07-17 05:48 pm NW 15.9 19.0----29.99- 63.5 55.6----
2024-07-17 05:42 pm NW 15.9 17.1----30.00- 63.5 56.1----
2024-07-17 05:36 pm-------29.99- 63.9 56.1----
2024-07-17 05:30 pm-------29.99- 64.8 56.1----
2024-07-17 05:24 pm NW 15.0 19.0----29.99- 65.8 56.3----
2024-07-17 05:18 pm NW 14.0 15.9----29.99- 66.7 56.3----
2024-07-17 05:12 pm NW 12.0 17.1----29.99- 66.4 56.3----
2024-07-17 05:06 pm NW 14.0 18.1----29.99- 65.1 56.3----
2024-07-17 05:00 pm NW 15.0 18.1----29.99-0.02 63.0 56.3----
2024-07-17 04:54 pm NW 15.9 18.1----29.99- 63.1 56.3----
2024-07-17 04:48 pm NW 14.0 17.1----29.99- 63.1 56.3----
2024-07-17 04:42 pm NW 14.0 18.1----29.99- 63.5 56.5----
2024-07-17 04:36 pm-------29.99- 63.1 56.5----
2024-07-17 04:30 pm-------29.99- 64.2 56.5----
2024-07-17 04:24 pm NW 15.0 18.1----29.99- 63.3 56.5----
2024-07-17 04:18 pm NW 15.0 19.0----29.99- 64.4 56.5----
2024-07-17 04:12 pm NW 15.0 20.0----29.99- 63.3 56.5----
2024-07-17 04:06 pm NW 15.9 19.0----29.99- 63.1 56.5----
2024-07-17 04:00 pm NW 17.1 19.0----30.00-0.02 63.1 56.5----
2024-07-17 03:54 pm NW 15.9 18.1----30.00- 63.1 56.5----